Time,TemperatureF,DewpointF,PressureIn,WindDirection,WindDirectionDegrees,WindSpeedMPH,WindSpeedGustMPH,Humidity,HourlyPrecipIn,Conditions,Clouds,dailyrainin,SoftwareType,DateUTC
2013-02-17 00:06:00,-999.0,-99.9,30.14,North,-999,-999.0,-999.0,-999,-99.99,,,0.00,weatherlink.com 1.10,2013-02-17 05:06:00,
2013-02-17 00:21:00,-999.0,-99.9,30.14,North,-999,-999.0,-999.0,-999,-99.99,,,0.00,weatherlink.com 1.10,2013-02-17 05:21:00,
2013-02-17 00:36:00,-999.0,-99.9,30.14,North,-999,-999.0,-999.0,-999,-99.99,,,0.00,weatherlink.com 1.10,2013-02-17 05:36:00,
2013-02-17 00:51:00,-999.0,-99.9,30.14,North,-999,-999.0,-999.0,-999,-99.99,,,0.00,weatherlink.com 1.10,2013-02-17 05:51:00,
2013-02-17 01:06:00,-999.0,-99.9,30.14,North,-999,-999.0,-999.0,-999,-99.99,,,0.00,weatherlink.com 1.10,2013-02-17 06:06:00,
2013-02-17 01:21:00,-999.0,-99.9,30.14,North,-999,-999.0,-999.0,-999,-99.99,,,0.00,weatherlink.com 1.10,2013-02-17 06:21:00,
2013-02-17 01:36:00,-999.0,-99.9,30.14,North,-999,-999.0,-999.0,-999,-99.99,,,0.00,weatherlink.com 1.10,2013-02-17 06:36:00,
2013-02-17 01:51:00,-999.0,-99.9,30.14,North,-999,-999.0,-999.0,-999,-99.99,,,0.00,weatherlink.com 1.10,2013-02-17 06:51:00,
2013-02-17 02:06:00,-999.0,-99.9,30.14,North,-999,-999.0,-999.0,-999,-99.99,,,0.00,weatherlink.com 1.10,2013-02-17 07:06:00,
2013-02-17 02:21:00,-999.0,-99.9,30.14,North,-999,-999.0,-999.0,-999,-99.99,,,0.00,weatherlink.com 1.10,2013-02-17 07:21:00,
2013-02-17 02:36:00,-999.0,-99.9,30.14,North,-999,-999.0,-999.0,-999,-99.99,,,0.00,weatherlink.com 1.10,2013-02-17 07:36:00,
2013-02-17 02:51:00,-999.0,-99.9,30.14,North,-999,-999.0,-999.0,-999,-99.99,,,0.00,weatherlink.com 1.10,2013-02-17 07:51:00,
2013-02-17 03:06:00,-999.0,-99.9,30.13,North,-999,-999.0,-999.0,-999,-99.99,,,0.00,weatherlink.com 1.10,2013-02-17 08:06:00,
2013-02-17 03:21:00,-999.0,-99.9,30.14,North,-999,-999.0,-999.0,-999,-99.99,,,0.00,weatherlink.com 1.10,2013-02-17 08:21:00,
2013-02-17 03:37:00,-999.0,-99.9,30.14,North,-999,-999.0,-999.0,-999,-99.99,,,0.00,weatherlink.com 1.10,2013-02-17 08:37:00,
2013-02-17 03:52:00,-999.0,-99.9,30.14,North,-999,-999.0,-999.0,-999,-99.99,,,0.00,weatherlink.com 1.10,2013-02-17 08:52:00,
2013-02-17 04:07:00,-999.0,-99.9,30.14,North,-999,-999.0,-999.0,-999,-99.99,,,0.00,weatherlink.com 1.10,2013-02-17 09:07:00,
2013-02-17 04:22:00,-999.0,-99.9,30.14,North,-999,-999.0,-999.0,-999,-99.99,,,0.00,weatherlink.com 1.10,2013-02-17 09:22:00,
2013-02-17 04:37:00,-999.0,-99.9,30.14,North,-999,-999.0,-999.0,-999,-99.99,,,0.00,weatherlink.com 1.10,2013-02-17 09:37:00,
2013-02-17 04:52:00,-999.0,-99.9,30.14,North,-999,-999.0,-999.0,-999,-99.99,,,0.00,weatherlink.com 1.10,2013-02-17 09:52:00,
2013-02-17 05:07:00,-999.0,-99.9,30.15,North,-999,-999.0,-999.0,-999,-99.99,,,0.00,weatherlink.com 1.10,2013-02-17 10:07:00,
2013-02-17 05:22:00,-999.0,-99.9,30.15,North,-999,-999.0,-999.0,-999,-99.99,,,0.00,weatherlink.com 1.10,2013-02-17 10:22:00,
2013-02-17 05:37:00,-999.0,-99.9,30.15,North,-999,-999.0,-999.0,-999,-99.99,,,0.00,weatherlink.com 1.10,2013-02-17 10:37:00,
2013-02-17 05:52:00,-999.0,-99.9,30.15,North,-999,-999.0,-999.0,-999,-99.99,,,0.00,weatherlink.com 1.10,2013-02-17 10:52:00,
2013-02-17 06:07:00,-999.0,-99.9,30.15,North,-999,-999.0,-999.0,-999,-99.99,,,0.00,weatherlink.com 1.10,2013-02-17 11:07:00,
2013-02-17 06:22:00,-999.0,-99.9,30.16,North,-999,-999.0,-999.0,-999,-99.99,,,0.00,weatherlink.com 1.10,2013-02-17 11:22:00,
2013-02-17 06:37:00,-999.0,-99.9,30.17,North,-999,-999.0,-999.0,-999,-99.99,,,0.00,weatherlink.com 1.10,2013-02-17 11:37:00,
2013-02-17 06:53:00,-999.0,-99.9,30.17,North,-999,-999.0,-999.0,-999,-99.99,,,0.00,weatherlink.com 1.10,2013-02-17 11:53:00,
2013-02-17 07:08:00,-999.0,-99.9,30.17,North,-999,-999.0,-999.0,-999,-99.99,,,0.00,weatherlink.com 1.10,2013-02-17 12:08:00,
2013-02-17 07:23:00,-999.0,-99.9,30.17,North,-999,-999.0,-999.0,-999,-99.99,,,0.00,weatherlink.com 1.10,2013-02-17 12:23:00,
2013-02-17 07:38:00,-999.0,-99.9,30.18,North,-999,-999.0,-999.0,-999,-99.99,,,0.00,weatherlink.com 1.10,2013-02-17 12:38:00,
2013-02-17 07:53:00,-999.0,-99.9,30.18,North,-999,-999.0,-999.0,-999,-99.99,,,0.00,weatherlink.com 1.10,2013-02-17 12:53:00,
2013-02-17 08:08:00,-999.0,-99.9,30.18,North,-999,-999.0,-999.0,-999,-99.99,,,0.00,weatherlink.com 1.10,2013-02-17 13:08:00,
2013-02-17 08:23:00,-999.0,-99.9,30.18,North,-999,-999.0,-999.0,-999,-99.99,,,0.00,weatherlink.com 1.10,2013-02-17 13:23:00,
2013-02-17 08:38:00,-999.0,-99.9,30.18,North,-999,-999.0,-999.0,-999,-99.99,,,0.00,weatherlink.com 1.10,2013-02-17 13:38:00,
2013-02-17 08:53:00,-999.0,-99.9,30.19,North,-999,-999.0,-999.0,-999,-99.99,,,0.00,weatherlink.com 1.10,2013-02-17 13:53:00,
2013-02-17 09:08:00,-999.0,-99.9,30.18,North,-999,-999.0,-999.0,-999,-99.99,,,0.00,weatherlink.com 1.10,2013-02-17 14:08:00,
2013-02-17 09:23:00,11.2,6.0,30.19,ENE,70,0.0,-999.0,80,-99.99,,,0.00,weatherlink.com 1.10,2013-02-17 14:23:00,
2013-02-17 09:38:00,11.5,6.0,30.19,East,84,1.0,-999.0,79,-99.99,,,0.00,weatherlink.com 1.10,2013-02-17 14:38:00,
2013-02-17 09:53:00,10.9,6.0,30.19,ESE,111,2.0,-999.0,80,-99.99,,,0.00,weatherlink.com 1.10,2013-02-17 14:53:00,
2013-02-17 10:08:00,11.5,6.0,30.20,ESE,106,0.0,-999.0,78,-99.99,,,0.00,weatherlink.com 1.10,2013-02-17 15:08:00,
2013-02-17 10:23:00,12.1,6.0,30.20,East,98,5.0,-999.0,76,-99.99,,,0.00,weatherlink.com 1.10,2013-02-17 15:23:00,
2013-02-17 10:38:00,12.6,6.0,30.20,East,92,4.0,-999.0,75,-99.99,,,0.00,weatherlink.com 1.10,2013-02-17 15:38:00,
2013-02-17 10:53:00,13.1,6.0,30.20,East,92,2.0,-999.0,74,-99.99,,,0.00,weatherlink.com 1.10,2013-02-17 15:53:00,
2013-02-17 11:08:00,13.0,6.0,30.20,East,89,3.0,-999.0,73,-99.99,,,0.00,weatherlink.com 1.10,2013-02-17 16:08:00,
2013-02-17 11:23:00,13.1,6.0,30.20,East,90,0.0,-999.0,74,-99.99,,,0.00,weatherlink.com 1.10,2013-02-17 16:23:00,
2013-02-17 11:38:00,13.1,6.0,30.20,East,90,0.0,-999.0,73,-99.99,,,0.00,weatherlink.com 1.10,2013-02-17 16:38:00,
2013-02-17 11:54:00,14.1,7.0,30.20,East,90,2.0,-999.0,72,-99.99,,,0.00,weatherlink.com 1.10,2013-02-17 16:54:00,
2013-02-17 12:09:00,14.7,7.0,30.20,East,90,0.0,-999.0,70,-99.99,,,0.00,weatherlink.com 1.10,2013-02-17 17:09:00,
2013-02-17 12:24:00,14.3,7.0,30.20,East,90,1.0,-999.0,72,-99.99,,,0.00,weatherlink.com 1.10,2013-02-17 17:24:00,
2013-02-17 12:39:00,15.0,8.0,30.19,East,90,1.0,-999.0,72,-99.99,,,0.00,weatherlink.com 1.10,2013-02-17 17:39:00,
2013-02-17 12:54:00,15.6,8.0,30.19,East,90,2.0,-999.0,72,-99.99,,,0.00,weatherlink.com 1.10,2013-02-17 17:54:00,
2013-02-17 13:09:00,16.3,8.0,30.18,East,90,2.0,-999.0,71,-99.99,,,0.00,weatherlink.com 1.10,2013-02-17 18:09:00,
2013-02-17 13:24:00,16.8,9.0,30.17,East,90,2.0,-999.0,72,-99.99,,,0.00,weatherlink.com 1.10,2013-02-17 18:24:00,
2013-02-17 13:39:00,16.5,9.0,30.17,East,90,2.0,-999.0,71,-99.99,,,0.00,weatherlink.com 1.10,2013-02-17 18:39:00,
2013-02-17 13:54:00,17.2,9.0,30.16,East,90,1.0,-999.0,70,-99.99,,,0.00,weatherlink.com 1.10,2013-02-17 18:54:00,
2013-02-17 14:09:00,16.8,9.0,30.16,East,90,2.0,-999.0,71,-99.99,,,0.00,weatherlink.com 1.10,2013-02-17 19:09:00,
2013-02-17 14:24:00,17.0,9.0,30.15,East,90,3.0,-999.0,71,-99.99,,,0.00,weatherlink.com 1.10,2013-02-17 19:24:00,
2013-02-17 14:39:00,17.1,10.0,30.15,East,91,0.0,-999.0,72,-99.99,,,0.00,weatherlink.com 1.10,2013-02-17 19:39:00,
2013-02-17 14:54:00,18.0,10.0,30.16,East,91,0.0,-999.0,71,-99.99,,,0.00,weatherlink.com 1.10,2013-02-17 19:54:00,
2013-02-17 15:09:00,18.6,11.0,30.16,East,91,0.0,-999.0,71,-99.99,,,0.00,weatherlink.com 1.10,2013-02-17 20:09:00,
2013-02-17 15:24:00,20.1,11.0,30.16,East,91,0.0,-999.0,68,-99.99,,,0.00,weatherlink.com 1.10,2013-02-17 20:24:00,
2013-02-17 15:39:00,20.0,11.0,30.15,East,91,3.0,-999.0,67,-99.99,,,0.00,weatherlink.com 1.10,2013-02-17 20:39:00,
2013-02-17 15:54:00,19.7,9.0,30.15,East,91,2.0,-999.0,63,-99.99,,,0.00,weatherlink.com 1.10,2013-02-17 20:54:00,
2013-02-17 16:09:00,17.9,8.0,30.15,East,91,2.0,-999.0,65,-99.99,,,0.00,weatherlink.com 1.10,2013-02-17 21:09:00,
2013-02-17 16:24:00,17.0,8.0,30.15,East,91,1.0,-999.0,67,-99.99,,,0.00,weatherlink.com 1.10,2013-02-17 21:24:00,
2013-02-17 16:39:00,17.3,8.0,30.15,East,91,0.0,-999.0,68,-99.99,,,0.00,weatherlink.com 1.10,2013-02-17 21:39:00,
2013-02-17 16:54:00,17.1,9.0,30.15,East,91,0.0,-999.0,71,-99.99,,,0.00,weatherlink.com 1.10,2013-02-17 21:54:00,
2013-02-17 17:09:00,17.3,9.0,30.14,East,91,0.0,-999.0,69,-99.99,,,0.00,weatherlink.com 1.10,2013-02-17 22:09:00,
2013-02-17 17:24:00,16.9,10.0,30.14,East,91,2.0,-999.0,73,-99.99,,,0.00,weatherlink.com 1.10,2013-02-17 22:24:00,
2013-02-17 17:39:00,16.1,9.0,30.14,East,91,0.0,-999.0,74,-99.99,,,0.00,weatherlink.com 1.10,2013-02-17 22:39:00,
2013-02-17 17:54:00,16.0,9.0,30.14,East,91,1.0,-999.0,74,-99.99,,,0.00,weatherlink.com 1.10,2013-02-17 22:54:00,
2013-02-17 18:09:00,-999.0,-99.9,30.14,North,-999,-999.0,-999.0,-999,-99.99,,,0.00,weatherlink.com 1.10,2013-02-17 23:09:00,
2013-02-17 18:24:00,-999.0,-99.9,30.13,North,-999,-999.0,-999.0,-999,-99.99,,,0.00,weatherlink.com 1.10,2013-02-17 23:24:00,
2013-02-17 18:39:00,-999.0,-99.9,30.14,North,-999,-999.0,-999.0,-999,-99.99,,,0.00,weatherlink.com 1.10,2013-02-17 23:39:00,
2013-02-17 18:54:00,-999.0,-99.9,30.14,North,-999,-999.0,-999.0,-999,-99.99,,,0.00,weatherlink.com 1.10,2013-02-17 23:54:00,
2013-02-17 19:09:00,-999.0,-99.9,30.13,North,-999,-999.0,-999.0,-999,-99.99,,,0.00,weatherlink.com 1.10,2013-02-18 00:09:00,
2013-02-17 19:24:00,-999.0,-99.9,30.13,North,-999,-999.0,-999.0,-999,-99.99,,,0.00,weatherlink.com 1.10,2013-02-18 00:24:00,
2013-02-17 19:39:00,-999.0,-99.9,30.12,North,-999,-999.0,-999.0,-999,-99.99,,,0.00,weatherlink.com 1.10,2013-02-18 00:39:00,
2013-02-17 19:55:00,-999.0,-99.9,30.13,North,-999,-999.0,-999.0,-999,-99.99,,,0.00,weatherlink.com 1.10,2013-02-18 00:55:00,
2013-02-17 20:10:00,-999.0,-99.9,30.13,North,-999,-999.0,-999.0,-999,-99.99,,,0.00,weatherlink.com 1.10,2013-02-18 01:10:00,
2013-02-17 20:25:00,-999.0,-99.9,30.12,North,-999,-999.0,-999.0,-999,-99.99,,,0.00,weatherlink.com 1.10,2013-02-18 01:25:00,
2013-02-17 20:40:00,-999.0,-99.9,30.12,North,-999,-999.0,-999.0,-999,-99.99,,,0.00,weatherlink.com 1.10,2013-02-18 01:40:00,
2013-02-17 20:55:00,-999.0,-99.9,30.12,North,-999,-999.0,-999.0,-999,-99.99,,,0.00,weatherlink.com 1.10,2013-02-18 01:55:00,
2013-02-17 21:10:00,-999.0,-99.9,30.12,North,-999,-999.0,-999.0,-999,-99.99,,,0.00,weatherlink.com 1.10,2013-02-18 02:10:00,
2013-02-17 21:25:00,-999.0,-99.9,30.12,North,-999,-999.0,-999.0,-999,-99.99,,,0.00,weatherlink.com 1.10,2013-02-18 02:25:00,
2013-02-17 21:40:00,-999.0,-99.9,30.12,North,-999,-999.0,-999.0,-999,-99.99,,,0.00,weatherlink.com 1.10,2013-02-18 02:40:00,
2013-02-17 21:55:00,-999.0,-99.9,30.11,North,-999,-999.0,-999.0,-999,-99.99,,,0.00,weatherlink.com 1.10,2013-02-18 02:55:00,
2013-02-17 22:10:00,-999.0,-99.9,30.12,North,-999,-999.0,-999.0,-999,-99.99,,,0.00,weatherlink.com 1.10,2013-02-18 03:10:00,
2013-02-17 22:25:00,-999.0,-99.9,30.11,North,-999,-999.0,-999.0,-999,-99.99,,,0.00,weatherlink.com 1.10,2013-02-18 03:25:00,
2013-02-17 22:40:00,-999.0,-99.9,30.11,North,-999,-999.0,-999.0,-999,-99.99,,,0.00,weatherlink.com 1.10,2013-02-18 03:40:00,
2013-02-17 22:55:00,16.4,12.0,30.11,NE,43,21.0,-999.0,81,-99.99,,,0.00,weatherlink.com 1.10,2013-02-18 03:55:00,
2013-02-17 23:10:00,-999.0,-99.9,30.12,North,-999,-999.0,-999.0,-999,-99.99,,,0.00,weatherlink.com 1.10,2013-02-18 04:10:00,
2013-02-17 23:26:00,-999.0,-99.9,30.11,North,-999,-999.0,-999.0,-999,-99.99,,,0.00,weatherlink.com 1.10,2013-02-18 04:26:00,
2013-02-17 23:41:00,-999.0,-99.9,30.11,North,-999,-999.0,-999.0,-999,-99.99,,,0.00,weatherlink.com 1.10,2013-02-18 04:41:00,
2013-02-17 23:56:00,-999.0,-99.9,30.10,North,-999,-999.0,-999.0,-999,-99.99,,,0.00,weatherlink.com 1.10,2013-02-18 04:56:00,